Accueil
METAR-TAF:

METAR-TAF

Aéroports :

Kingstree, Caroline du Sud, États-Unis

latitude: 33-43-02N, longitude: 079-51-25W, altitude: 20 m

Observation

Le bulletin a été fait il y a 12 minutes, à 12:15 UTC
Vent calme
Température 9°C
Humidité 87%
Pression 1015 hPa
Visibilité: 11.3 km
Ciel clair

METAR: KCKI 041215Z AUTO 00000KT 7SM CLR 09/07 A2997 RMK AO2

Heure: 08:27 (12:27 UTC)


TAF: absent

Observations et prévisions météorologiques de plus de 4000 aéroports (messages METAR et TAF).

Les stations disponibles sont représentées par des disques jaunes et rouges sur la carte.

Passer la souris dessus pour voir le nom de la station.

Cliquer dessus pour voir les observations et prévisions météorologiques.

Pour changer de carte: cliquez sur les boutons verts avec une croix noire pour zoomer, sur le bouton vert avec un tiret pour effectuer un zoom arrière, ou sur les flèches vertes pour les cartes adjacentes.


METAR-TAF: